logo
App data

You Have 10 Seconds

You Have 10 Seconds is a fast paced arcade style platformer game with over 40 levels.
Store | Hub | SteamDB
Developer: tamationgames Publisher: tamationgames
Genre: Free to Play, Indie
Languages: English
Tags: Free to Play (68), Indie (38), Platformer (29), Difficult (21), Great Soundtrack (20), Singleplayer (18), Pixel Graphics (16), 2D (15), Funny (10)
Category: Single-player, Partial Controller Support
Release date: Jul 14, 2016
Free
Score rank: 77% Userscore: 90% Old userscore: 90%
Owners: 200,000 .. 500,000
Followers: 2,018
Peak concurrent players yesterday: 4
YouTube stats: 221 views and 13 comments for videos uploaded last week, 1 new videos uploaded yesterday.
Playtime total: 01:06 (average) 00:06 (median)

Steam Spy is still in beta, so expect major bugs.

Owners data:

Access restricted.

This feature is only available to users with special access rights. Sorry.

If you want to proceed, you need to register or log in first and then back Steam Spy on Patreon. Look for Indie or Pro pledge.

Don't forget to use the same email as on Steam Spy!

Audience in 2 weeks:

Access restricted.

This feature is only available to users with special access rights. Sorry.

If you want to proceed, you need to register or log in first and then back Steam Spy on Patreon. Look for Indie or Pro pledge.

Don't forget to use the same email as on Steam Spy!

Peak daily concurrent players:

CCU data courtesy of SteamDB. Used with permission.

Hourly concurrent players:

Daily Twitch stats:

Hourly Twitch stats:

YouTube:

The views data is based on top 50 videos uploaded last week. Actual number of views might be more than the number shown.

The displayed number of videos uploaded yesterday is limited to 50, so if there were more videos uploaded, the number will still show 50.

If the game has commonly used word as its name (like "FEAR" or "Volume") its number of Youtube views might be wrong.

Games similar to this one:

# Game Release date
Price
Score rank
(Userscore / Metascore)
Owners
Players
Playtime (Median)
1 Pocket Kingdom Dec 8, 2016 $6.99100% (100%)0 .. 20,0000%00:00 (00:00)
2 Z-Exemplar Nov 25, 2016 $4.99N/A (N/A)0 .. 20,0000%00:00 (00:00)
3 The Sea Will Claim Everything Mar 24, 2016 $9.9997% (97%)0 .. 20,0000%00:00 (00:00)
4 In the Raven Shadow – Ve stínu havrana Jul 11, 2017 $3.99N/A (N/A)0 .. 20,0000%00:00 (00:00)
5 Cosmic Sugar VR Nov 30, 2016 Free93% (95%)50,000 .. 100,0000%00:00 (00:00)
6 OLDTV Jul 14, 2017 Free93% (95%)200,000 .. 500,0002.24%00:22 (00:25)
7 The Lonesome Fog Mar 24, 2016 $4.99N/A (N/A)0 .. 20,0000%00:00 (00:00)
8 Ballads of Reemus: When the Bed Bites Apr 27, 2015 $4.99N/A (N/A)0 .. 20,0000%00:00 (00:00)
9 Dragon Age: Origins Awakening Mar 16, 2010 $9.9983% (92%/82%)0 .. 20,0001.18%00:01 (00:00)
10 Pan-Pan Aug 25, 2016 $12.9983% (92%)0 .. 20,0000%00:00 (00:00)
11 Brighter Day Jul 17, 2015 $2.99N/A (N/A)0 .. 20,0000%00:00 (00:00)
12 Thread Studio Sep 29, 2016 FreeN/A (N/A)0 .. 20,0000%00:00 (00:00)
13 Viridi Aug 19, 2015 Free76% (90%/46%)500,000 .. 1,000,0001.81%00:39 (00:51)
14 Cubixx HD Jan 28, 2016 $8.99N/A (N/A)0 .. 20,0000%00:00 (00:00)
15 Party Jousting Mar 1, 2016 Free76% (90%)100,000 .. 200,0000.58%00:18 (00:06)
16 Black Ink Feb 8, 2016 $59.9973% (89%)20,000 .. 50,0000%00:00 (00:00)
17 Pilot Brothers 2 Dec 31, 2014 $4.99N/A (N/A)0 .. 20,0000%00:00 (00:00)
18 Nimble Writer Apr 21, 2015 $9.9967% (87%)0 .. 20,0006.25%01:51 (00:37)
19 Jacob Jones and the Bigfoot Mystery : Episode 2 Sep 23, 2014 $3.99N/A (N/A)0 .. 20,0000%00:00 (00:00)
20 SOLITUNE Nov 20, 2016 $1.99N/A (N/A)0 .. 20,00013.33%01:49 (01:12)
21 VR Gallery Aug 11, 2016 FreeN/A (N/A)20,000 .. 50,0000%00:00 (00:00)
22 Prominence Nov 6, 2015 $19.9954% (82%)0 .. 20,0000%00:00 (00:00)
23 The Journey Back Aug 12, 2015 $1.99N/A (N/A)0 .. 20,0000%00:00 (00:00)
24 SVRVIVE: The Deus Helix Nov 17, 2016 $18.9952% (81%)0 .. 20,0000%00:00 (00:00)
25 Call of Cthulhu: Shadow of the Comet Nov 4, 2015 $5.99N/A (N/A)0 .. 20,0000%00:00 (00:00)
26 The Storm Guard: Darkness is Coming Aug 25, 2016 $19.9950% (80%)0 .. 20,0000%00:00 (00:00)
27 Foxhole Jul 27, 2017 $19.9950% (80%)100,000 .. 200,0003.88%00:12 (00:14)
28 Fences Mar 29, 2017 $9.9948% (79%)20,000 .. 50,00020.69%00:01 (00:01)
29 Just Ignore Them Apr 28, 2017 $3.9942% (76%)0 .. 20,0000%00:00 (00:00)
30 Ambre - a heartbreaking kinetic novel Jun 9, 2017 Free42% (76%)20,000 .. 50,0000%00:00 (00:00)
31 Tony Tough and the Night of Roasted Moths May 7, 2015 $9.99N/A (N/A/68%)0 .. 20,0000%00:00 (00:00)
32 IKEA VR Experience Apr 4, 2016 Free38% (74%)100,000 .. 200,0000%00:00 (00:00)
33 Mausoleum of the Medusa Oct 27, 2016 Free38% (74%)0 .. 20,0000%00:00 (00:00)
34 Call of Cthulhu: Prisoner of Ice Nov 4, 2015 $5.99N/A (N/A)0 .. 20,0000%00:00 (00:00)
35 Wild Warfare Jul 15, 2014 N/A32% (70%)200,000 .. 500,0000%00:00 (00:00)
36 The Revenge of Johnny Bonasera: Episode 1 Nov 1, 2016 $3.99N/A (N/A)0 .. 20,0000%00:00 (00:00)
37 Krita Gemini Jun 10, 2014 $9.9929% (68%)0 .. 20,0000%00:00 (00:00)
38 The Morgue Fissure Between Worlds Mar 31, 2017 $0.99N/A (N/A)0 .. 20,0000%00:00 (00:00)
39 CGWallpapers Nov 30, 2016 $4.99N/A (N/A)0 .. 20,0000%00:00 (00:00)
40 Clown2Beat Oct 26, 2016 FreeN/A (N/A)0 .. 20,0000%00:00 (00:00)
41 Lands of Hope Redemption Oct 15, 2015 $1.99N/A (N/A)0 .. 20,0000%00:00 (00:00)
42 Elminage Gothic Sep 18, 2014 $9.9921% (62%)0 .. 20,0000%00:00 (00:00)
43 Unhappy Ever After Jan 20, 2017 $0.99N/A (N/A)0 .. 20,0000%00:00 (00:00)
44 The Big Secret of a Small Town Oct 22, 2015 $6.9920% (61%)0 .. 20,0000%00:00 (00:00)
45 Mystery Mine May 16, 2017 $3.9916% (57%)100,000 .. 200,0000.24%173:47 (57:55)
46 Pilot Brothers 3: Back Side of the Earth Jan 22, 2015 $4.99N/A (N/A)0 .. 20,0000%00:00 (00:00)
47 Torn Tales Jan 17, 2017 $12.99N/A (N/A)20,000 .. 50,0000%00:00 (00:00)
48 Escape The Lost Kingdom: The Forgotten Pharaoh Aug 6, 2010 $4.9914% (55%)20,000 .. 50,0000%00:00 (00:00)
49 Multiplayer FPS Demo Jul 6, 2017 Free13% (54%)50,000 .. 100,0000%00:00 (00:00)
50 Playing History: Vikings Jul 1, 2015 $2.99N/A (N/A)20,000 .. 50,0000%00:00 (00:00)
51 Fractasia Nov 17, 2016 FreeN/A (N/A)0 .. 20,0000%00:00 (00:00)
52 D.W.A.R.F.S. Oct 6, 2008 $5.99N/A (N/A)0 .. 20,0000%00:00 (00:00)
53 Black Island Oct 14, 2015 $2.99N/A (N/A)0 .. 20,0000%00:00 (00:00)
54 After Life - Story of a Father Nov 25, 2016 $5.99N/A (N/A)0 .. 20,0000%00:00 (00:00)
55 Bayou Island - Point and Click Adventure Feb 28, 2017 $1.99N/A (N/A)0 .. 20,0000%00:00 (00:00)
56 Astro Lords: Oort Cloud Jan 15, 2016 FreeN/A (N/A)50,000 .. 100,0000%00:00 (00:00)
57 Ways of History Sep 1, 2017 Free9% (47%)50,000 .. 100,0000%00:00 (00:00)
58 De-Void Sep 2, 2016 $7.998% (45%)20,000 .. 50,0000.85%00:17 (00:05)
59 Maze Sounds Oct 3, 2016 $4.99N/A (N/A)0 .. 20,0000%00:00 (00:00)
60 Vault Cracker May 15, 2014 $4.99N/A (N/A)0 .. 20,0000%00:00 (00:00)
61 Ragnarok Journey Jun 12, 2017 Free4% (36%)50,000 .. 100,0000%00:00 (00:00)
62 iTownGamePlay UNIVERSE Sep 30, 2017 FreeN/A (N/A)20,000 .. 50,0007.69%00:15 (00:05)
63 BattleSpace Sep 27, 2013 N/A3% (32%)100,000 .. 200,0000%00:00 (00:00)
64 Haunted House: Cryptic Graves Nov 25, 2014 N/AN/A (N/A)0 .. 20,0000%00:00 (00:00)

Owners of this game also own:

Access restricted.

This feature is only available to users with special access rights. Sorry.

If you want to proceed, you need to register or log in first and then back Steam Spy on Patreon. Look for Indie or Pro pledge.

Don't forget to use the same email as on Steam Spy!

Playtime distribution:

Access restricted.

This feature is only available to users with special access rights. Sorry.

If you want to proceed, you need to register or log in first and then back Steam Spy on Patreon. Look for Indie or Pro pledge.

Don't forget to use the same email as on Steam Spy!

Playtime (2 weeks):

Access restricted.

This feature is only available to users with special access rights. Sorry.

If you want to proceed, you need to register or log in first and then back Steam Spy on Patreon. Look for Indie or Pro pledge.

Don't forget to use the same email as on Steam Spy!

User reviews:

Login required.

Please register or log in to see this information.